Terug naar catalogus

FENGYUN 1C DEB

ActiefSSO
NORAD 30299·DEBRIS·🇨🇳 China

Gelanceerd May 10, 1999 vanaf Taiyuan Satellite Launch Center

Loading…

Volgende Passages (komende 24 uur)

TLE

VersSource: Space-Track

Epoch: Sep 14, 2026, 03:42 UTC

1 30299U 99025ZL  26257.15422709  .00001482  00000-0  84153-3 0  9999
2 30299  99.0804 336.3826 0101363 317.8448  70.4310 14.09009038  1498

Volg FENGYUN 1C DEB in realtime met AllMySat

Download on the App Store